www.pogodaiklimat.ru

Погода и климат >> Архив погоды >> Россия >> Якутия >> Иэма


ПОГОДА в Иэме

  • Прогноз погоды в Иэме
  • Монитор погоды в Иэме
  • Климат города

АРХИВ ПОГОДЫ в Иэме

Время (UTC), дата Ветер
(напр.,м/с)
 
Видим.   Явления Облачность Т
(С)
Тd
(С)
f
(%)
Тe
(С)
Тes
(С)
Комфортность P
(гПа)
Po
(гПа)
Тmin
(С)
Tmax
(С)
R
(мм)
R24
(мм)
S
(см)
18 12.08 В 1 50 км 3/0
[Cs]
+4.3 +3.1 92 +3 +3 1015.1 934.9
21 12.08 штиль 0 50 км 1/0
[Cs]
+9.5 +6.0 79 +9 +10 1014.5 935.8 +3.4
00 13.08 штиль 0 50 км ясно +15.0 +7.1 59 +15 +23 1013.2 936.1
03 13.08 ЮЗ 1 50 км 6/6 600 м
[Cu hum]
+20.1 +8.9 48 +22 +26 комфорт 1011.5 935.8
06 13.08 ЮЗ 2 50 км 8/8 600 м
[Cu hum]
+22.0 +8.9 43 +23 +24 комфорт 1010.5 935.4
09 13.08 С 1 50 км 4/4 600 м
[Cu med, cong]
+22.5 +5.5 33 +23 +24 комфорт 1010.4 935.4 +25.6
12 13.08 В 1 50 км 1/0
[Ci fib]
+14.3 +5.9 57 +15 +15 1014.2 936.8
15 13.08 СВ 1 50 км 1/0
[Ci fib]
+7.0 +3.2 77 +6 +6 1018.2 938.5
18 13.08 штиль 0 50 км 3/0
[Ci fib]
+2.3 +0.7 89 +1 +1 1021.1 939.8
21 13.08 штиль 0 50 км 6/0
[Cs]
+3.8 +2.3 90 +3 +4 1021.8 941.0 +2.0
00 14.08 штиль 0 50 км ?/? +12.9 +7.1 68 +13 +13 1019.4 941.3
03 14.08 ЮЗ 1 20 км 4/3
[Cu hum Ci fib]
+19.8 +8.3 47 +22 +29 комфорт 1017.1 940.9
06 14.08 СЗ 1 10 км 4/3
[Cu hum Ci fib]
+23.3 +6.9 35 +24 +28 комфорт 1013.9 940.3
09 14.08 Ю 1 50 км 10/0
[Cs]
+22.2 +5.8 34 +23 +24 комфорт 1015.1 939.6 +23.8
12 14.08 СВ 3 50 км 10/0
[Cs]
+15.5 +4.9 49 +15 +15 1017.3 939.9
15 14.08 В 1 50 км 10/0
[Cs]
+6.9 +0.9 66 +6 +6 1020.4 940.5
18 14.08 СВ 1 50 км 8/0
[Cs]
+3.5 0.0 78 +2 +2 1021.7 940.7
21 14.08 штиль 0 50 км 3/0
[Ci fib]
+7.6 +4.6 81 +7 +8 1021.0 941.4 +3.2
00 15.08 штиль 0 50 км 3/0
[Ci fib]
+16.5 +7.1 54 +16 +23 1018.0 940.9
03 15.08 ЮЗ 1 50 км 8/0
[Ci fib]
+27.9 +8.9 30 +28 +36 жарко 1014.2 939.5
06 15.08 Ю 4 50 км 9/0
[Ci fib]
+24.0 +8.3 37 +25 +27 комфорт 1012.8 938.0
09 15.08 Ю 5 50 км 9/0
[Cs]
+22.5 +10.1 45 +24 +25 комфорт 1011.9 936.8 +27.0
12 15.08 Ю 4 50 км 9/0
[Cs]
+18.9 +9.9 56 +20 +20 1013.7 937.5
15 15.08 штиль 0 50 км 10/0
[Cs]
+12.2 +6.8 70 +12 +12 1016.4 938.3
18 15.08 штиль 0 50 км 10/0
[Cs]
+12.2 +9.0 81 +12 +12 1016.2 938.2
21 15.08 Ю 2 50 км 10/0
[As trans]
+14.7 +11.5 81 +14 +15 1014.8 937.6 +12.0
00 16.08 Ю 5 50 км 10/0
[As trans]
+16.8 +11.7 72 +16 +17 1012.9 936.4
03 16.08 Ю 5 50 км 10/6 600 м
[Cb cap As trans]
+19.8 +11.9 60 +21 +22 комфорт 1009.9 934.4
06 16.08 Ю 6 50 км 10/4 600 м
[Cu med, cong As trans]
+19.3 +9.1 52 +20 +20 1008.3 932.7
09 16.08 Ю 5 50 км 10/8 600 м
[Sc As trans]
+17.9 +8.6 54 +18 +18 1007.6 931.7 +20.2
12 16.08 Ю 5 50 км 10/10 600 м
[Sc]
+15.9 +7.7 58 +15 +15 1007.6 931.1
15 16.08 Ю 1 50 км 10/10 600 м
[Sc]
+14.5 +7.7 64 +15 +15 1007.4 930.6
18 16.08 Ю 2 50 км {дождь} 10/0
[As op]
+13.3 +9.4 77 +13 +13 1008.3 931.2
21 16.08 ЮВ 1 50 км 10/0 600 м
[As op]
+12.4 +9.9 85 +12 +13 1008.2 930.8 +12.4 0.0
00 17.08 Ю 3 50 км 9/0
[Ac trans]
+14.6 +11.5 82 +14 +16 1007.5 930.8
03 17.08 ЮВ 1 50 км 9/9 600 м
[Sc]
+17.1 +11.0 67 +18 +19 1006.6 930.6
06 17.08 Ю 1 50 км 8/8 600 м
[Sc diur, vesp]
+20.2 +10.9 55 +23 +24 комфорт 1005.0 929.9
09 17.08 ЮВ 3 50 км 4/4 600 м
[Sc diur, vesp]
+19.6 +11.7 60 +21 +22 комфорт 1005.1 929.9 +21.6
12 17.08 Ю 2 50 км 3/0
[Ac trans Ci fib]
+14.0 +10.8 81 +13 +13 1007.2 930.4
15 17.08 штиль 0 50 км 1/0
[Ci fib]
+11.2 +9.6 90 +11 +11 1007.6 930.0
18 17.08 штиль 0 50 км 8/0
[Ac As Ci fib]
+9.8 +8.6 92 +9 +9 1008.0 930.0
21 17.08 штиль 0 50 км 8/0
[Ac As Ci fib]
+11.5 +9.1 85 +11 +12 1007.3 929.8 +9.5
00 18.08 ЮЗ 1 50 км 8/4 1000 м
[Sc Ac As Cc]
+14.6 +11.2 80 +15 +17 1006.1 929.5
03 18.08 штиль 0 50 км 9/6 600 м
[Sc Ac cast Cc]
+19.3 +11.1 59 +20 +23 1004.2 928.9
06 18.08 Ю 1 50 км 8/5 600 м
[Sc Ac cast Ci]
+19.9 +14.4 71 +23 +25 комфорт 1003.5 928.5
09 18.08 50 км н/о +20.9 +13.4 62 +25 +25 комфорт 1003.1 928.4 +21.5
12 18.08 СВ 2 50 км 9/3 600 м
[Sc Ac lent Cc]
+15.9 +13.2 84 +16 +16 1005.0 928.9
15 18.08 СВ 1 50 км 10/5 600 м
[Sc Ac lent Cc]
+14.6 +12.4 87 +15 +15 1006.2 929.6
18 18.08 СВ 1 50 км {ливн. осадки} 10/10 600 м
[Cb cap]
+13.8 +12.1 89 +14 +14 1007.0 930.2
21 18.08 С 1 50 км 9/0
[Ac As Cs]
+12.2 +10.5 89 +12 +13 1008.8 931.4 +12.2 0.0
00 19.08 З 2 50 км 8/0
[Ac trans Cs]
+16.1 +13.1 82 +16 +20 1008.2 931.9
03 19.08 З 2 50 км 9/8 600 м
[Cb cap Ac As]
+19.9 +12.7 63 +22 +23 комфорт 1006.7 931.4
06 19.08 С 2 50 км 9/8 600 м
[Sc As trans]
+20.2 +13.6 66 +23 +24 комфорт 1006.0 930.9
09 19.08 СЗ 3 50 км 10/0
[Cs]
+21.9 +12.8 56 +24 +25 комфорт 1005.3 930.6 +23.3
12 19.08 СЗ 1 50 км 9/0
[Ci fib]
+15.1 +11.8 81 +16 +16 1008.2 931.6
15 19.08 С 1 50 км 8/0
[Ci fib]
+7.5 +6.2 91 +7 +7 1010.9 932.0

 

Местоположение метеостанции Иэма (Якутия, Россия): широта 65.30 долгота 135.80 высота над уровнем моря 675 м.

В архиве по умолчанию представлена погода в Иэме за последнюю неделю. Архивные данные за месяц целиком и за предыдущие месяцы, начиная с января 2011 года, Вы можете получить, выбрав интересующий диапазон дат из раскрывающегося списка и нажав кнопку "Ввод!".


*Определитесь, кто Вы:
робот инопланетянин человек

Внимание! Время в таблицах - всемирное. Для получения местного времени необходимо прибавить поправку, которая в Иэме равна 9 ч.

Смотрите также архив погоды в соседних городах и на ближайших метеорологических станциях:

Погода в Томпо (Якутия, Россия) (150 км)
Погода в Усть-Чарках (Якутия, Россия) (171 км)
Погода в Екюччю (Якутия, Россия) (250 км)
Погода в Батагае (Якутия, Россия) (267 км)
Погода в Себян-Кюеле (Якутия, Россия) (269 км)
Погода в Верхоянске (Якутия, Россия) (274 км)
Погода в Крест-Хальджае (Якутия, Россия) (284 км)
Погода в Теплом Ключе (Якутия, Россия) (284 км)
Погода в Верхоянском Перевозе (Якутия, Россия) (286 км)
Погода в Восточной (Якутия, Россия) (294 км)

Пояснения к столбцам:

Ветер - указаны скорость ветра в м/с - средняя за 10 мин, порывы в срок и между сроками (в фигурных скобках) и направление, откуда дует ветер: С - северный, СВ - северо-восточный, В - восточный, ЮВ - юго-восточный, Ю - южный, ЮЗ - юго-западный, З - западный, СЗ - северо-западный.
Видимость - горизонтальная дальность видимости в метрах или километрах. При видимости от 1 до 10 км при отсутствии осадков обычно наблюдается дымка, при ухудшении видимости до 1 км и менее - туман. В сухую погоду видимость может ухудшаться дымом, пылью или мглою.
Явления - указаны атмосферные явления, наблюдавшиеся в срок или в последний час перед сроком; фигурными скобками обозначены явления, наблюдавшиеся между сроками (за 1-3 часа до срока); квадратными скобками обозначены град или гололедные отложения с указанием их диаметра в мм.
Облачность - указаны через наклонную черту общая и нижняя облачность в баллах и высота нижней границы облаков в метрах; квадратными скобками обозначены формы облаков: Ci - перистые, Cs - перисто-слоистые, Cc - перисто-кучевые, Ac - высококучевые, As - высокослоистые, Sc - слоисто-кучевые, Ns - слоисто-дождевые, Cu - кучевые, Cb - кучево-дождевые. Подробнее классификацию облаков см. в Атласе облаков (PDF).
T - Температура воздуха - температура, измеренная на высоте 2 м над землей.
Td - Температура точки росы - температура, при понижении до которой содержащийся в воздухе водяной пар достигнет насыщения.
f - Относительная влажность воздуха - влажноcть воздуха, измеренная на высоте 2 м над землей.
Te - Эффективная температура - температура, которую ощущает одетый по сезону человек в тени. Характеристика душности погоды. При расчете учитывается влияние влажности воздуха и скорости ветра на теплоощущения человека.
Tes - Эффективная температура на солнце - температура, которую ощущает человек, с поправкой на солнечный нагрев. Характеристика знойности погоды. Зависит от высоты солнца над горизонтом, облачности и скорости ветра. Ночью, в пасмурную погоду, а также при ветре 12 м/с и более поправка равна нулю.
P - Атмосферное давление - приведенное к уровню моря атмосферное давление.
Po - Атмосферное давление - измеренное на уровне метеостанции атмосферное давление.
Tmin - Минимальная температура - минимум температуры воздуха на высоте 2 м над землей.
Tmax - Максимальная температура - максимум температуры воздуха на высоте 2 м над землей.
R - Количество осадков - Количество выпавших осадков за период времени, мм. При наведении курсора мыши на число - период времени, за который выпало указанное количество осадков.
R24 - Количество осадков - Количество выпавших осадков за 24 часа, мм.
S - Снежный покров - Высота снежного покрова, см. При наведении курсора мыши на число - состояние снежного покрова и степень покрытия местности в баллах.